Regional Weather Roundup
Issued by NWS

Home | Current Version | Previous Version | Text Only | Print | Product List | Glossary On
Versions: 1 2 3 4 5 6 7 8 9 10 11 12 13 14 15 16 17 18 19 20 21 22 23 24 25 26 27 28 29 30 31 32 33 34 35 36 37 38 39 40 41 42 43 44 45 46 47 48 49 50
000
ASUS43 KBIS 070410
RWRND

NORTH DAKOTA REGIONAL WEATHER ROUNDUP
NATIONAL WEATHER SERVICE BISMARCK ND
1100 PM CDT SAT JUN 06 2020

NOTE: "FAIR" INDICATES FEW OR NO CLOUDS BELOW 12,000 FEET WITH NO
SIGNIFICANT WEATHER AND/OR OBSTRUCTIONS TO VISIBILITY.


NDZ001>003-009>011-017-070500-
NORTHWEST NORTH DAKOTA

CITY           SKY/WX    TMP DP  RH WIND       PRES   REMARKS
WILLISTON      LGT RAIN  63  50  62 SE30G43   29.48F
MINOT          CLOUDY    65  47  52 E22G40    29.63S
MINOT AFB      CLOUDY    63  49  60 SE23G30   29.62S
$$

NDZ018>021-031>035-040>046-070500-
SOUTHWEST NORTH DAKOTA

CITY           SKY/WX    TMP DP  RH WIND       PRES   REMARKS
BISMARCK       CLOUDY    71  53  52 E22G32    29.54F
DICKINSON      LGT RAIN  64  62  93 SE7       29.47F
GARRISON         N/A     63  51  65 E28G40    29.55F
HETTINGER ARPT CLOUDY    61  60  97 E10       29.50F
$$

NDZ004>008-012>016-024-026-027-054-070500-
NORTHEAST NORTH DAKOTA

CITY           SKY/WX    TMP DP  RH WIND       PRES   REMARKS
GRAND FORKS    MOCLDY    61  53  75 E17G23    29.83F
GRND FRKS AFB  MOCLDY    61  58  92 E13       29.84F
DEVILS LAKE    CLOUDY    61  51  70 E26G35    29.75F
$$

NDZ022-023-025-028>030-036>039-047>053-070500-
SOUTHEAST NORTH DAKOTA

CITY           SKY/WX    TMP DP  RH WIND       PRES   REMARKS
FARGO          PTCLDY    66  51  58 SE22G32   29.79F
JAMESTOWN      PTCLDY    63  51  65 SE21G39   29.70F
$$




USA.gov is the U.S. government's official web portal to all federal, state and local government web resources and services.